Weather History for Fort Stockton, TX

Change the Weather History Date:

Sunday, December 25, 2011

  Actual Average Record
Temperature  
Mean Temperature 34 °F -  
Max Temperature 37 °F 58 °F 78 °F (2008)
Min Temperature 30 °F 33 °F 25 °F (1998)
Degree Days  
Heating Degree Days 32    
Moisture  
Dew Point 30 °F    
Average Humidity 89    
Maximum Humidity 100    
Minimum Humidity 73    
Precipitation  
Precipitation 0.00 in - - ()
Sea Level Pressure  
Sea Level Pressure 30.41 in    
Wind  
Wind Speed 8 mph (WNW)    
Max Wind Speed 13 mph    
Max Gust Speed -    
Visibility 10 miles    
Events      
Averages and records for this station are not official NWS values.
T = Trace of Precipitation, MM = Missing Value Source: NWS Daily Summary

Daily Weather History Graph

Daily Weather History Graph

Search for Another Location

Airport:

Trip Planner

Search our weather history database for the weather conditions in past years. The results will help you decide how hot, cold, wet, or windy it might be!

Date:

Astronomy

Dec. 25, 2011 Rise Set
Actual Time 7:47 AM CST 5:56 PM CST
Civil Twilight 7:20 AM CST 6:22 PM CST
Nautical Twilight 6:50 AM CST 6:53 PM CST
Astronomical Twilight 6:20 AM CST 7:22 PM CST
Moon 8:29 AM CST (12/25) 7:15 PM CST (12/25)
Length of Visible Light 11h 02m
Length of Day
10h 08m
New Moon, 1% of the Moon is Illuminated
Dec 25
New Moon
Jan 1
First Quarter
Jan 9
Full
Jan 16
Last Quarter
Jan 23
New

Hourly Weather History & Observations

Time (CST) Temp. Windchill Dew Point Humidity Pressure Visibility Wind Dir Wind Speed Gust Speed Precip Events Conditions
12:07 AM 30.2 °F 23.4 °F 28.4 °F 93% 30.42 in 10.0 mi West 6.9 mph - N/A   Overcast
12:53 AM 30.9 °F 21.7 °F 28.9 °F 92% 30.42 in 10.0 mi WNW 11.5 mph - N/A   Overcast
1:53 AM 30.9 °F 26.2 °F 30.0 °F 96% 30.41 in 10.0 mi West 4.6 mph - N/A   Overcast
2:25 AM 30.2 °F 22.6 °F 30.2 °F 100% 30.40 in 10.0 mi West 8.1 mph - N/A   Overcast
2:53 AM 30.9 °F 23.5 °F 30.0 °F 96% 30.40 in 10.0 mi WNW 8.1 mph - N/A   Overcast
3:01 AM 30.2 °F 22.6 °F 30.2 °F 100% 30.39 in 10.0 mi WNW 8.1 mph - N/A   Overcast
3:32 AM 30.2 °F 22.6 °F 30.2 °F 100% 30.39 in 10.0 mi WNW 8.1 mph - N/A   Overcast
3:53 AM 30.9 °F 23.5 °F 30.0 °F 96% 30.40 in 10.0 mi WNW 8.1 mph - N/A   Overcast
4:29 AM 30.2 °F 24.3 °F 30.2 °F 100% 30.38 in 10.0 mi West 5.8 mph - N/A   Overcast
4:53 AM 30.9 °F 24.3 °F 30.0 °F 96% 30.39 in 10.0 mi WNW 6.9 mph - N/A   Overcast
5:01 AM 30.2 °F 22.6 °F 30.2 °F 100% 30.39 in 10.0 mi WNW 8.1 mph - N/A   Overcast
5:31 AM 30.2 °F 21.9 °F 30.2 °F 100% 30.39 in 10.0 mi West 9.2 mph - N/A   Overcast
5:43 AM 30.2 °F 21.9 °F 30.2 °F 100% 30.39 in 10.0 mi WNW 9.2 mph - N/A   Overcast
5:53 AM 30.9 °F 22.8 °F 30.0 °F 96% 30.40 in 10.0 mi West 9.2 mph - N/A   Overcast
6:24 AM 30.2 °F 22.6 °F 30.2 °F 100% 30.39 in 10.0 mi West 8.1 mph - N/A   Overcast
6:38 AM 30.2 °F 22.6 °F 30.2 °F 100% 30.40 in 10.0 mi West 8.1 mph - N/A   Overcast
6:45 AM 30.2 °F 21.3 °F 30.2 °F 100% 30.40 in 10.0 mi West 10.4 mph - N/A   Overcast
6:53 AM 32.0 °F 22.5 °F 30.0 °F 92% 30.41 in 10.0 mi WNW 12.7 mph - N/A   Overcast
7:00 AM 30.2 °F 20.8 °F 30.2 °F 100% 30.40 in 10.0 mi WNW 11.5 mph - N/A   Overcast
7:40 AM 32.0 °F 23.0 °F 30.2 °F 93% 30.41 in 10.0 mi WNW 11.5 mph - N/A   Overcast
7:53 AM 32.0 °F 24.8 °F 30.0 °F 92% 30.43 in 10.0 mi West 8.1 mph - N/A   Overcast
8:01 AM 32.0 °F 23.0 °F 30.2 °F 93% 30.42 in 10.0 mi WNW 11.5 mph - N/A   Overcast
8:32 AM 32.0 °F 24.8 °F 30.2 °F 93% 30.43 in 10.0 mi WNW 8.1 mph - N/A   Overcast
8:53 AM 32.0 °F 24.2 °F 30.0 °F 92% 30.45 in 10.0 mi West 9.2 mph - N/A   Overcast
9:00 AM 32.0 °F 23.6 °F 30.2 °F 93% 30.44 in 10.0 mi West 10.4 mph - N/A   Overcast
9:27 AM 33.8 °F 28.6 °F 30.2 °F 87% 30.45 in 10.0 mi West 5.8 mph - N/A   Overcast
9:48 AM 33.8 °F 27.0 °F 30.2 °F 87% 30.46 in 10.0 mi West 8.1 mph - N/A   Overcast
9:53 AM 33.1 °F 26.1 °F 30.9 °F 92% 30.47 in 10.0 mi WNW 8.1 mph - N/A   Overcast
10:53 AM 34.0 °F 26.6 °F 30.9 °F 89% 30.48 in 10.0 mi West 9.2 mph - N/A   Overcast
11:12 AM 35.6 °F 29.2 °F 30.2 °F 81% 30.47 in 10.0 mi WNW 8.1 mph - N/A   Overcast
11:29 AM 35.6 °F 28.0 °F 32.0 °F 87% 30.46 in 10.0 mi WNW 10.4 mph - N/A   Overcast
11:48 AM 35.6 °F 27.5 °F 32.0 °F 87% 30.45 in 10.0 mi NW 11.5 mph - N/A   Overcast
11:53 AM 36.0 °F 28.0 °F 32.0 °F 86% 30.45 in 10.0 mi WNW 11.5 mph - N/A   Overcast
12:39 PM 35.6 °F 28.0 °F 30.2 °F 81% 30.43 in 10.0 mi WNW 10.4 mph - N/A   Overcast
12:53 PM 37.0 °F 30.4 °F 32.0 °F 82% 30.42 in 10.0 mi WNW 9.2 mph - N/A   Overcast
1:53 PM 37.9 °F 30.5 °F 30.9 °F 76% 30.39 in 10.0 mi West 11.5 mph - N/A   Overcast
2:53 PM 37.9 °F 32.7 °F 30.0 °F 73% 30.37 in 10.0 mi West 6.9 mph - N/A   Overcast
3:53 PM 37.9 °F 31.5 °F 30.0 °F 73% 30.36 in 10.0 mi WNW 9.2 mph - N/A   Overcast
4:15 PM 37.4 °F 30.8 °F 30.2 °F 75% 30.37 in 10.0 mi NW 9.2 mph - N/A   Overcast
4:53 PM 37.9 °F 32.1 °F 30.0 °F 73% 30.36 in 10.0 mi NW 8.1 mph - N/A   Overcast
5:26 PM 37.4 °F 29.8 °F 30.2 °F 75% 30.37 in 10.0 mi NNW 11.5 mph - N/A   Overcast
5:43 PM 37.4 °F 29.8 °F 30.2 °F 75% 30.37 in 10.0 mi NW 11.5 mph - N/A   Overcast
6:53 PM 37.0 °F 31.6 °F 30.0 °F 76% 30.37 in 10.0 mi NW 6.9 mph - N/A   Overcast
8:53 PM 35.1 °F 32.2 °F 30.9 °F 85% 30.38 in 10.0 mi WNW 3.5 mph - N/A   Overcast
9:53 PM 35.1 °F 30.1 °F 30.0 °F 82% 30.37 in 10.0 mi WNW 5.8 mph - N/A   Overcast
10:53 PM 34.0 °F 28.8 °F 30.0 °F 85% 30.37 in 10.0 mi West 5.8 mph - N/A   Overcast
11:53 PM 33.1 °F 26.9 °F 28.0 °F 82% 30.34 in 10.0 mi West 6.9 mph - N/A   Overcast